Time,TemperatureF,DewpointF,PressureIn,WindDirection,WindDirectionDegrees,WindSpeedMPH,WindSpeedGustMPH,Humidity,HourlyPrecipIn,Conditions,Clouds,dailyrainin,SoftwareType,DateUTC
2013-04-12 00:02:00,52.0,46.6,29.92,West,279,1.0,3.0,82,0.00,,,0.00,meteohub,2013-04-12 07:02:00,
2013-04-12 00:07:00,52.0,46.6,29.92,West,279,0.0,3.0,82,0.00,,,0.00,meteohub,2013-04-12 07:07:00,
2013-04-12 00:12:00,51.8,46.4,29.92,West,279,1.0,5.0,82,0.00,,,0.00,meteohub,2013-04-12 07:12:00,
2013-04-12 00:17:00,51.8,46.4,29.92,West,279,0.0,7.0,82,0.00,,,0.00,meteohub,2013-04-12 07:17:00,
2013-04-12 00:27:00,51.4,46.4,29.92,West,279,0.0,7.0,83,0.00,,,0.00,meteohub,2013-04-12 07:27:00,
2013-04-12 00:32:00,51.3,46.2,29.92,West,279,0.0,6.0,83,0.00,,,0.00,meteohub,2013-04-12 07:32:00,
2013-04-12 00:42:00,51.6,46.6,29.92,West,279,0.0,3.0,83,0.00,,,0.00,meteohub,2013-04-12 07:42:00,
2013-04-12 00:47:00,51.8,46.8,29.92,West,279,0.0,3.0,83,0.00,,,0.00,meteohub,2013-04-12 07:47:00,
2013-04-12 00:52:00,52.0,46.6,29.92,West,279,0.0,2.0,82,0.00,,,0.00,meteohub,2013-04-12 07:52:00,
2013-04-12 00:57:00,52.0,46.6,29.93,West,279,1.0,1.0,82,0.00,,,0.00,meteohub,2013-04-12 07:57:00,
2013-04-12 01:02:00,52.3,46.9,29.93,West,279,0.0,1.0,82,0.00,,,0.00,meteohub,2013-04-12 08:02:00,
2013-04-12 01:07:00,52.3,46.8,29.93,West,279,0.0,1.0,81,0.00,,,0.00,meteohub,2013-04-12 08:07:00,
2013-04-12 01:12:00,52.3,46.4,29.93,West,279,0.0,4.0,80,0.00,,,0.00,meteohub,2013-04-12 08:12:00,
2013-04-12 01:17:00,52.0,46.4,29.93,West,279,1.0,5.0,81,0.00,,,0.00,meteohub,2013-04-12 08:17:00,
2013-04-12 01:22:00,51.6,46.2,29.93,West,279,2.0,5.0,82,0.00,,,0.00,meteohub,2013-04-12 08:22:00,
2013-04-12 01:27:00,51.4,46.2,29.93,West,279,0.0,5.0,82,0.00,,,0.00,meteohub,2013-04-12 08:27:00,
2013-04-12 01:32:00,51.4,46.2,29.93,West,279,0.0,4.0,82,0.00,,,0.00,meteohub,2013-04-12 08:32:00,
2013-04-12 01:37:00,51.4,46.2,29.94,West,279,1.0,4.0,82,0.00,,,0.00,meteohub,2013-04-12 08:37:00,
2013-04-12 01:42:00,51.4,46.2,29.93,West,279,0.0,3.0,82,0.00,,,0.00,meteohub,2013-04-12 08:42:00,
2013-04-12 01:52:00,51.6,46.2,29.93,West,279,0.0,3.0,82,0.00,,,0.00,meteohub,2013-04-12 08:52:00,
2013-04-12 01:57:00,51.8,46.2,29.93,West,279,0.0,1.0,81,0.00,,,0.00,meteohub,2013-04-12 08:57:00,
2013-04-12 02:07:00,52.0,46.4,29.93,West,279,0.0,0.0,81,0.00,,,0.00,meteohub,2013-04-12 09:07:00,
2013-04-12 02:12:00,52.0,46.4,29.92,West,279,0.0,0.0,81,0.00,,,0.00,meteohub,2013-04-12 09:12:00,
2013-04-12 02:17:00,52.0,46.4,29.93,West,279,0.0,0.0,81,0.00,,,0.00,meteohub,2013-04-12 09:17:00,
2013-04-12 02:22:00,52.3,46.8,29.93,West,279,1.0,0.0,81,0.00,,,0.00,meteohub,2013-04-12 09:22:00,
2013-04-12 02:27:00,52.5,46.6,29.93,West,279,0.0,1.0,80,0.00,,,0.00,meteohub,2013-04-12 09:27:00,
2013-04-12 02:37:00,52.0,46.4,29.92,West,279,1.0,4.0,81,0.00,,,0.00,meteohub,2013-04-12 09:37:00,
2013-04-12 02:42:00,51.6,46.0,29.93,West,279,3.0,4.0,81,0.00,,,0.00,meteohub,2013-04-12 09:42:00,
2013-04-12 02:52:00,51.4,46.2,29.92,West,279,0.0,3.0,82,0.00,,,0.00,meteohub,2013-04-12 09:52:00,
2013-04-12 02:57:00,51.4,46.2,29.92,West,279,0.0,3.0,82,0.00,,,0.00,meteohub,2013-04-12 09:57:00,
2013-04-12 03:07:00,51.3,46.2,29.93,West,279,4.0,5.0,83,0.00,,,0.00,meteohub,2013-04-12 10:07:00,
2013-04-12 03:12:00,51.3,46.2,29.93,West,279,0.0,6.0,83,0.00,,,0.00,meteohub,2013-04-12 10:12:00,
2013-04-12 03:22:00,51.1,46.4,29.92,West,279,2.0,6.0,84,0.00,,,0.00,meteohub,2013-04-12 10:22:00,
2013-04-12 03:27:00,50.7,46.4,29.92,West,279,3.0,6.0,85,0.00,,,0.00,meteohub,2013-04-12 10:27:00,
2013-04-12 03:37:00,51.1,46.8,29.91,West,279,0.0,4.0,85,0.00,,,0.00,meteohub,2013-04-12 10:37:00,
2013-04-12 03:42:00,51.3,46.9,29.92,West,279,0.0,4.0,85,0.00,,,0.00,meteohub,2013-04-12 10:42:00,
2013-04-12 03:52:00,51.3,46.6,29.92,West,279,1.0,4.0,84,0.00,,,0.00,meteohub,2013-04-12 10:52:00,
2013-04-12 03:57:00,51.4,46.8,29.92,West,279,0.0,4.0,84,0.00,,,0.00,meteohub,2013-04-12 10:57:00,
2013-04-12 04:02:00,51.6,46.9,29.92,West,279,0.0,4.0,84,0.00,,,0.00,meteohub,2013-04-12 11:02:00,
2013-04-12 04:07:00,51.6,46.9,29.92,West,279,0.0,4.0,84,0.00,,,0.00,meteohub,2013-04-12 11:07:00,
2013-04-12 04:12:00,52.0,46.9,29.92,West,279,0.0,3.0,83,0.00,,,0.00,meteohub,2013-04-12 11:12:00,
2013-04-12 04:22:00,51.4,46.4,29.92,West,279,0.0,4.0,83,0.00,,,0.00,meteohub,2013-04-12 11:22:00,
2013-04-12 04:27:00,51.1,46.4,29.92,West,279,0.0,4.0,84,0.00,,,0.00,meteohub,2013-04-12 11:27:00,
2013-04-12 04:37:00,51.3,46.6,29.92,West,279,1.0,3.0,84,0.00,,,0.00,meteohub,2013-04-12 11:37:00,
2013-04-12 04:47:00,51.1,46.4,29.92,West,279,0.0,2.0,84,0.00,,,0.00,meteohub,2013-04-12 11:47:00,
2013-04-12 04:57:00,51.1,46.8,29.92,West,279,0.0,4.0,85,0.00,,,0.00,meteohub,2013-04-12 11:57:00,
2013-04-12 05:07:00,50.9,46.6,29.92,West,279,0.0,4.0,85,0.00,,,0.00,meteohub,2013-04-12 12:07:00,
2013-04-12 05:12:00,50.7,46.4,29.92,West,279,2.0,5.0,85,0.00,,,0.00,meteohub,2013-04-12 12:12:00,
2013-04-12 05:17:00,51.1,46.8,29.93,West,279,0.0,6.0,85,0.00,,,0.00,meteohub,2013-04-12 12:17:00,
2013-04-12 05:22:00,51.1,46.8,29.93,West,279,4.0,6.0,85,0.00,,,0.00,meteohub,2013-04-12 12:22:00,
2013-04-12 05:27:00,51.1,46.8,29.93,West,279,3.0,6.0,85,0.00,,,0.00,meteohub,2013-04-12 12:27:00,
2013-04-12 05:32:00,51.1,46.8,29.93,West,279,0.0,5.0,85,0.00,,,0.00,meteohub,2013-04-12 12:32:00,
2013-04-12 05:37:00,51.4,46.8,29.92,West,279,1.0,5.0,84,0.00,,,0.00,meteohub,2013-04-12 12:37:00,
2013-04-12 05:42:00,51.6,46.9,29.92,West,279,0.0,5.0,84,0.00,,,0.00,meteohub,2013-04-12 12:42:00,
2013-04-12 05:52:00,51.8,46.8,29.93,West,279,0.0,3.0,83,0.00,,,0.00,meteohub,2013-04-12 12:52:00,
2013-04-12 05:57:00,52.2,47.1,29.93,West,279,1.0,3.0,83,0.00,,,0.00,meteohub,2013-04-12 12:57:00,
2013-04-12 06:02:00,52.2,46.8,29.93,West,279,0.0,2.0,82,0.00,,,0.00,meteohub,2013-04-12 13:02:00,
2013-04-12 06:12:00,52.0,46.6,29.93,West,279,0.0,2.0,82,0.00,,,0.00,meteohub,2013-04-12 13:12:00,
2013-04-12 06:17:00,52.0,46.6,29.93,West,279,0.0,2.0,82,0.00,,,0.00,meteohub,2013-04-12 13:17:00,
2013-04-12 06:27:00,52.0,46.6,29.93,West,279,0.0,1.0,82,0.00,,,0.00,meteohub,2013-04-12 13:27:00,
2013-04-12 06:32:00,51.8,46.4,29.93,West,279,0.0,1.0,82,0.00,,,0.00,meteohub,2013-04-12 13:32:00,
2013-04-12 06:37:00,52.3,46.9,29.93,West,279,0.0,1.0,82,0.00,,,0.00,meteohub,2013-04-12 13:37:00,
2013-04-12 06:42:00,52.7,47.1,29.94,West,279,1.0,1.0,81,0.00,,,0.00,meteohub,2013-04-12 13:42:00,
2013-04-12 06:52:00,52.5,46.6,29.94,West,279,0.0,2.0,80,0.00,,,0.00,meteohub,2013-04-12 13:52:00,
2013-04-12 06:57:00,52.3,46.8,29.94,West,279,1.0,4.0,81,0.00,,,0.00,meteohub,2013-04-12 13:57:00,
2013-04-12 07:02:00,52.2,46.6,29.95,West,279,0.0,4.0,81,0.00,,,0.00,meteohub,2013-04-12 14:02:00,
2013-04-12 07:07:00,52.2,46.8,29.95,West,279,4.0,4.0,82,0.00,,,0.00,meteohub,2013-04-12 14:07:00,
2013-04-12 07:17:00,51.3,46.2,29.95,West,279,4.0,8.0,83,0.00,,,0.00,meteohub,2013-04-12 14:17:00,
2013-04-12 07:22:00,51.1,46.4,29.95,West,279,7.0,9.0,84,0.00,,,0.00,meteohub,2013-04-12 14:22:00,
2013-04-12 07:32:00,50.7,46.9,29.95,West,279,2.0,9.0,87,0.00,,,0.00,meteohub,2013-04-12 14:32:00,
2013-04-12 07:37:00,50.7,46.9,29.96,West,279,2.0,9.0,87,0.00,,,0.00,meteohub,2013-04-12 14:37:00,
2013-04-12 07:42:00,51.1,47.3,29.96,West,279,3.0,7.0,87,0.00,,,0.00,meteohub,2013-04-12 14:42:00,
2013-04-12 07:47:00,51.3,47.8,29.96,West,279,0.0,7.0,88,0.00,,,0.00,meteohub,2013-04-12 14:47:00,
2013-04-12 07:52:00,51.4,47.7,29.96,West,279,1.0,6.0,87,0.00,,,0.00,meteohub,2013-04-12 14:52:00,
2013-04-12 08:02:00,52.5,48.4,29.96,West,279,1.0,5.0,86,0.00,,,0.00,meteohub,2013-04-12 15:02:00,
2013-04-12 08:07:00,53.1,48.4,29.96,West,279,0.0,5.0,84,0.00,,,0.00,meteohub,2013-04-12 15:07:00,
2013-04-12 08:12:00,53.4,48.7,29.96,West,279,0.0,3.0,84,0.00,,,0.00,meteohub,2013-04-12 15:12:00,
2013-04-12 08:17:00,54.0,48.9,29.96,West,279,1.0,3.0,83,0.00,,,0.00,meteohub,2013-04-12 15:17:00,
2013-04-12 08:27:00,54.0,48.2,29.96,West,279,2.0,4.0,81,0.00,,,0.00,meteohub,2013-04-12 15:27:00,
2013-04-12 08:32:00,53.8,48.0,29.96,West,279,3.0,4.0,81,0.00,,,0.00,meteohub,2013-04-12 15:32:00,
2013-04-12 08:42:00,53.4,48.0,29.96,West,279,3.0,6.0,82,0.00,,,0.00,meteohub,2013-04-12 15:42:00,
2013-04-12 08:47:00,53.6,48.2,29.96,West,279,1.0,5.0,82,0.00,,,0.00,meteohub,2013-04-12 15:47:00,
2013-04-12 08:52:00,53.6,48.2,29.96,West,279,3.0,5.0,82,0.00,,,0.00,meteohub,2013-04-12 15:52:00,
2013-04-12 08:57:00,54.0,48.2,29.96,West,279,0.0,5.0,81,0.00,,,0.00,meteohub,2013-04-12 15:57:00,
2013-04-12 09:07:00,55.6,48.9,29.96,West,279,1.0,6.0,78,0.00,,,0.00,meteohub,2013-04-12 16:07:00,
2013-04-12 09:12:00,55.4,48.4,29.96,West,279,0.0,6.0,77,0.00,,,0.00,meteohub,2013-04-12 16:12:00,
2013-04-12 09:17:00,55.4,48.7,29.96,West,279,2.0,6.0,78,0.00,,,0.00,meteohub,2013-04-12 16:17:00,
2013-04-12 09:22:00,55.8,48.7,29.96,West,279,0.0,6.0,77,0.00,,,0.00,meteohub,2013-04-12 16:22:00,
2013-04-12 09:27:00,55.9,48.6,29.96,West,279,4.0,6.0,76,0.00,,,0.00,meteohub,2013-04-12 16:27:00,
2013-04-12 09:32:00,55.6,48.6,29.96,West,279,0.0,5.0,77,0.00,,,0.00,meteohub,2013-04-12 16:32:00,
2013-04-12 09:37:00,55.8,48.4,29.96,West,279,1.0,6.0,76,0.00,,,0.00,meteohub,2013-04-12 16:37:00,
2013-04-12 09:47:00,55.9,48.6,29.96,ENE,65,2.0,6.0,76,0.00,,,0.00,meteohub,2013-04-12 16:47:00,
2013-04-12 09:52:00,56.3,48.6,29.96,ENE,66,2.0,8.0,75,0.00,,,0.00,meteohub,2013-04-12 16:52:00,
2013-04-12 09:57:00,56.1,48.0,29.96,ENE,65,3.0,8.0,74,0.00,,,0.00,meteohub,2013-04-12 16:57:00,
2013-04-12 10:07:00,58.6,49.3,29.96,ENE,64,2.0,5.0,71,0.00,,,0.00,meteohub,2013-04-12 17:07:00,
2013-04-12 10:12:00,58.5,48.4,29.96,ENE,64,2.0,4.0,69,0.00,,,0.00,meteohub,2013-04-12 17:12:00,
2013-04-12 10:17:00,57.9,48.2,29.95,ENE,65,3.0,7.0,70,0.00,,,0.00,meteohub,2013-04-12 17:17:00,
2013-04-12 10:22:00,58.1,48.7,29.95,ENE,65,1.0,8.0,71,0.00,,,0.00,meteohub,2013-04-12 17:22:00,
2013-04-12 10:32:00,58.5,49.1,29.95,ENE,65,1.0,7.0,71,0.00,,,0.00,meteohub,2013-04-12 17:32:00,
2013-04-12 10:37:00,59.0,48.9,29.95,ENE,66,2.0,5.0,69,0.00,,,0.00,meteohub,2013-04-12 17:37:00,
2013-04-12 10:42:00,58.6,48.6,29.96,ENE,66,2.0,4.0,69,0.00,,,0.00,meteohub,2013-04-12 17:42:00,
2013-04-12 10:47:00,59.4,49.1,29.95,SW,236,4.0,4.0,69,0.00,,,0.00,meteohub,2013-04-12 17:47:00,
2013-04-12 10:52:00,59.5,49.3,29.95,West,279,3.0,4.0,69,0.00,,,0.00,meteohub,2013-04-12 17:52:00,
2013-04-12 11:02:00,60.3,49.6,29.96,ENE,59,2.0,4.0,68,0.00,,,0.00,meteohub,2013-04-12 18:02:00,
2013-04-12 11:13:00,60.3,50.0,29.96,SW,214,2.0,6.0,69,0.00,,,0.00,meteohub,2013-04-12 18:13:00,
2013-04-12 11:22:00,60.6,50.4,29.96,ENE,62,3.0,6.0,69,0.00,,,0.00,meteohub,2013-04-12 18:22:00,
2013-04-12 12:27:00,62.8,48.7,29.94,NNW,331,1.0,8.0,60,0.00,,,0.00,meteohub,2013-04-12 19:27:00,
2013-04-12 12:32:00,62.2,48.6,29.94,WNW,287,6.0,8.0,61,0.00,,,0.00,meteohub,2013-04-12 19:32:00,
2013-04-12 12:37:00,61.5,48.0,29.94,NNW,341,3.0,11.0,61,0.00,,,0.00,meteohub,2013-04-12 19:37:00,
2013-04-12 12:42:00,61.0,48.4,29.94,WNW,294,3.0,11.0,63,0.00,,,0.00,meteohub,2013-04-12 19:42:00,
2013-04-12 12:52:00,61.2,48.4,29.94,North,350,8.0,11.0,63,0.00,,,0.00,meteohub,2013-04-12 19:52:00,
2013-04-12 13:02:00,60.8,48.9,29.94,West,276,4.0,11.0,65,0.00,,,0.00,meteohub,2013-04-12 20:02:00,
2013-04-12 13:07:00,60.6,48.0,29.94,WNW,301,7.0,10.0,63,0.00,,,0.00,meteohub,2013-04-12 20:07:00,
2013-04-12 13:12:00,61.2,48.4,29.94,NW,311,6.0,11.0,63,0.00,,,0.00,meteohub,2013-04-12 20:12:00,
2013-04-12 13:17:00,61.2,48.4,29.94,WNW,292,9.0,11.0,63,0.00,,,0.00,meteohub,2013-04-12 20:17:00,
2013-04-12 13:22:00,61.3,49.1,29.93,NW,311,5.0,9.0,64,0.00,,,0.00,meteohub,2013-04-12 20:22:00,
2013-04-12 13:27:00,62.1,49.3,29.93,WNW,296,7.0,9.0,63,0.00,,,0.00,meteohub,2013-04-12 20:27:00,
2013-04-12 13:37:00,62.8,50.0,29.93,North,5,4.0,11.0,63,0.00,,,0.00,meteohub,2013-04-12 20:37:00,
2013-04-12 13:42:00,62.8,48.7,29.93,West,259,9.0,9.0,60,0.00,,,0.00,meteohub,2013-04-12 20:42:00,
2013-04-12 13:52:00,62.8,48.7,29.92,North,-999,-999.0,9.0,60,0.00,,,0.00,meteohub,2013-04-12 20:52:00,